Probability
0 0 0 0 0 0 0 0 0 0 0 0 0 0 0 0 0 0 0 0 0 0 0 0 0 0 0 0 0 0 0 0 0 0 0 0 0 0 0 0 0 0 0 0
0 0 0 0 0 0 0 0 0 0 0 0 0 0 0 0 0 0 0 0 0 0 0 0 0 0 0 0 0 0 0 0 0 0 0 0 0 0 0 0 0 0 0 0
0 0 0 0 0 0 0 0 0 0 0 0 0 0 0 0 0 0 0 0 0 0 0 0 0 0 0 0 0 0 0 0 0 0 0 0 0 0 0 0 0 0 0 0
0 0 0 0 0 0 0 0 0 0 0 0 0 0 0 0 0 0 0 0 0 0 0 0 0 0 0 0 0 0 0 0 0 0 0 0 0 0 0 0 0 0 0 0
0 0 0 0 0 0 0 0 0 0 0 0 0 0 0 0 0 0 0 0 0 0 0 0 0 0 0 0 0 0 0 0 0 0 0 0 0 0 0 0 0 0 0 0
0 0 0 0 0 0 0 0 0 0 0 0 0 0 0 0 0 0 0 0 0 0 0 0 0 0 0 0 0 0 0 0 0 0 0 0 0 0 0 0 0 0 0 0
0 0 0 0 0 0 0 0 0 0 0 0 0 0 0 0 0 0 0 0 0 0 0 0 0 0 0 0 0 0 0 0 0 0 0 0 0 0 0 0 0 0 0 0
0 0 0 0 0 0 0 0 0 0 0 0 0 0 0 0 0 0 0 0 0 0 0 0 0 0 0 0 0 0 0 0 0 0 0 0 0 0 0 0 0 0 0 0
0 0 0 0 0 0 0 0 0 0 0 0 0 0 0 0 0 0 0 0 0 0 0 0 0 0 0 0 0 0 0 0 0 0 0 0 0 0 0 0 0 0 0 0
0 0 0 0 0 0 0 0 0 0 0 0 0 0 0 0 0 0 0 0 0 0 0 0 0 0 0 0 0 0 0 0 0 0 0 0 0 0 0 0 0 0 0 0
0 0 0 0 0 0 0 0 0 0 0 0 0 0 0 0 0 0 0 0 0 0 0 0 0 0 0 0 0 0 0 0 0 0 0 0 0 0 0 0 0 0 0 0
0 0 0 0 0 0 0 0 0 0 0 0 0 0 0 0 0 0 0 0 0 0 0 0 0 0 0 0 0 0 0 0 0 0 0 0 0 0 0 0 0 0 0 0
0 0 0 0 0 0 0 0 0 0 0 0 0 0 0 0 0 0 0 0 0 0 0 0 0 0 0 0 0 0 0 0 0 0 0 0 0 0 0 0 0 0 0 0
0 0 0 0 0 0 0 0 0 0 0 0 0 0 0 0 0 0 0 0 0 0 0 0 0 0 0 0 0 0 0 0 0 0 0 0 0 0 0 0 0 0 0 0
0 0 0 0 0 0 0 0 0 0 0 0 0 0 0 0 0 0 0 0 0 0 0 0 0 0 0 0 0 0 0 0 0 0 0 0 0 0 0 0 0 0 0 0
0 0 0 0 0 0 0 0 0 0 0 0 0 0 0 0 0 0 0 0 0 0 0 0 0 0 0 0 0 0 0 0 0 0 0 0 0 0 0 0 0 0 0 0
0 0 0 0 0 0 0 0 0 0 0 0 0 0 0 0 0 0 0 0 0 0 0 0 0 0 0 0 0 0 0 0 0 0 0 0 0 0 0 0 0 0 0 0
0 0 0 0 0 0 0 0 0 0 0 0 0 0 0 0 0 0 0 0 0 0 0 0 0 0 0 0 0 0 0 0 0 0 0 0 0 0 0 0 0 0 0 0
0 0 0 0 0 0 0 0 0 0 0 0 0 0 0 0 0 0 0 0 0 0 0 0 0 0 0 0 0 0 0 0 0 0 0 0 0 0 0 0 0 0 0 0
0 0 0 0 0 0 0 0 0 0 0 0 0 0 0 0 0 0 0 0 0 0 0 0 0 0 0 0 0 0 0 0 0 0 0 0 0 0 0 0 0 0 0 0
0 0 0 0 0 0 0 0 0 0 0 0 0 0 0 0 0 0 0 0 0 0 0 0 0 0 0 0 0 0 0 0 0 0 0 0 0 0 0 0 0 0 0 0
0 0 0 0 0 0 0 0 0 0 0 0 0 0 0 0 0 0 0 0 0 0 0 0 0 0 0 0 0 0 0 0 0 0 0 0 0 0 0 0 0 0 0 0
0 0 0 0 0 0 0 0 0 0 0 0 0 0 0 0 0 0 0 0 0 0 0 0 0 0 0 0 0 0 0 0 0 0 0 0 0 0 0 0 0 0 0 0
0 0 0 0 0 0 0 0 0 0 0 0 0 0 0 0 0 0 0 0 0 0 0 0 0 0 0 0 0 0 0 0 0 0 0 0 0 0 0 0 0 0 0 0
0 0 0 0 0 0 0 0 0 0 0 0 0 0 0 0 0 0 0 0 0 0 0 0 0 0 0 0 0 0 0 0 0 0 0 0 0 0 0 0 0 0 0 0
0 0 0 0 0 0 0 0 0 0 0 0 0 0 0 0 0 0 0 0 0 0 0 0 0 0 0 0 0 0 0 0 0 0 0 0 0 0 0 0 0 0 0 0
0 0 0 0 0 0 0 0 0 0 0 0 0 0 0 0 0 0 0 0 0 0 0 0 0 0 0 0 0 0 0 0 0 0 0 0 0 0 0 0 0 0 0 0
Height
5582 5578 5575 5572 5570 5567 5564 5562 5560 5559 5557 5556 5555 5554 5554 5553 5552 5552 5553 5553 5553 5554 5555 5557 5558 5560 5562 5565 5567 5570 5573 5576 5578 5581 5584 5587 5590 5593 5595 5598 5601 5603 5606 5608
5574 5570 5567 5564 5561 5559 5556 5553 5551 5549 5548 5546 5545 5544 5544 5543 5543 5543 5543 5543 5543 5544 5545 5546 5548 5550 5552 5554 5556 5559 5562 5565 5567 5570 5573 5576 5579 5582 5584 5587 5590 5592 5595 5597
5566 5562 5558 5556 5554 5550 5547 5545 5543 5541 5540 5538 5537 5536 5535 5535 5534 5534 5534 5534 5535 5535 5536 5537 5538 5540 5542 5544 5546 5548 5551 5554 5557 5559 5562 5565 5568 5571 5573 5576 5579 5581 5584 5586
5556 5554 5551 5550 5545 5542 5540 5537 5535 5532 5531 5530 5528 5527 5527 5526 5526 5526 5526 5526 5526 5527 5527 5528 5529 5531 5533 5534 5536 5538 5541 5543 5546 5549 5552 5555 5557 5560 5563 5565 5568 5571 5573 5575
5548 5545 5542 5541 5538 5535 5532 5530 5528 5526 5524 5522 5521 5520 5519 5518 5518 5517 5517 5518 5518 5518 5519 5520 5521 5522 5524 5526 5527 5529 5531 5533 5536 5538 5541 5544 5547 5550 5552 5555 5557 5560 5562 5564
5541 5537 5535 5535 5531 5527 5525 5523 5521 5519 5517 5515 5514 5513 5513 5511 5510 5510 5509 5509 5510 5510 5510 5511 5512 5513 5515 5517 5518 5520 5522 5524 5526 5529 5531 5534 5537 5539 5541 5544 5547 5549 5551 5553
5535 5531 5528 5527 5524 5521 5520 5518 5514 5511 5510 5508 5506 5505 5505 5503 5502 5501 5501 5501 5501 5501 5502 5502 5504 5505 5506 5507 5509 5511 5513 5515 5517 5519 5521 5524 5527 5529 5531 5534 5536 5539 5541 5543
5528 5525 5525 5520 5517 5515 5513 5509 5506 5504 5503 5501 5499 5498 5496 5495 5494 5493 5493 5493 5493 5493 5493 5494 5495 5496 5497 5499 5501 5503 5505 5507 5508 5510 5512 5515 5517 5519 5521 5524 5526 5528 5530 5532
5523 5521 5517 5513 5510 5507 5504 5502 5500 5498 5496 5494 5492 5491 5489 5488 5487 5486 5485 5485 5484 5484 5485 5486 5487 5488 5489 5491 5492 5494 5496 5498 5500 5502 5504 5506 5508 5510 5512 5514 5516 5518 5520 5522
5515 5513 5510 5506 5503 5500 5497 5495 5493 5491 5489 5487 5486 5484 5482 5481 5479 5478 5477 5477 5476 5476 5477 5478 5479 5480 5481 5483 5484 5486 5488 5490 5492 5493 5495 5497 5499 5501 5502 5504 5506 5508 5510 5512
5509 5506 5503 5500 5496 5493 5491 5488 5486 5484 5482 5480 5479 5477 5475 5473 5472 5471 5470 5469 5469 5469 5469 5470 5471 5472 5473 5475 5476 5478 5480 5481 5483 5485 5487 5489 5490 5492 5493 5495 5496 5499 5500 5502
5502 5499 5496 5493 5489 5487 5484 5482 5479 5477 5475 5473 5471 5469 5468 5466 5464 5463 5462 5461 5461 5461 5462 5462 5463 5464 5466 5467 5469 5470 5472 5473 5475 5476 5478 5480 5482 5483 5484 5486 5488 5489 5490 5492
5494 5491 5488 5485 5483 5480 5478 5475 5473 5470 5468 5466 5464 5462 5460 5458 5457 5455 5454 5454 5454 5454 5454 5455 5456 5457 5458 5460 5461 5462 5464 5465 5467 5468 5470 5471 5473 5474 5476 5478 5478 5480 5481 5481
5488 5485 5482 5479 5477 5474 5471 5469 5466 5464 5461 5459 5457 5455 5453 5451 5449 5448 5447 5446 5446 5446 5447 5448 5449 5450 5451 5452 5453 5454 5455 5457 5458 5460 5461 5463 5464 5465 5467 5468 5469 5470 5471 5472
5481 5479 5476 5473 5470 5468 5465 5462 5459 5457 5454 5452 5449 5447 5445 5443 5442 5441 5440 5439 5439 5439 5440 5441 5441 5442 5443 5444 5445 5446 5447 5448 5450 5451 5452 5454 5455 5456 5458 5459 5460 5460 5461 5462
5475 5472 5470 5467 5464 5461 5458 5455 5452 5449 5447 5444 5442 5439 5437 5436 5435 5434 5433 5432 5432 5432 5432 5433 5434 5434 5435 5436 5437 5438 5439 5440 5441 5442 5443 5444 5446 5447 5448 5449 5450 5450 5451 5452
5469 5466 5463 5460 5457 5454 5451 5448 5445 5441 5439 5436 5434 5432 5430 5428 5427 5426 5425 5425 5425 5424 5425 5425 5426 5427 5427 5428 5429 5429 5430 5431 5431 5432 5433 5435 5436 5437 5438 5439 5440 5440 5441 5441
5462 5460 5457 5453 5450 5447 5444 5441 5437 5434 5431 5429 5426 5424 5422 5421 5420 5419 5418 5417 5417 5416 5416 5417 5417 5418 5418 5419 5420 5420 5421 5421 5422 5423 5424 5425 5426 5427 5428 5429 5430 5430 5431 5431
5456 5453 5450 5447 5443 5440 5437 5434 5431 5428 5425 5422 5420 5417 5415 5414 5412 5411 5410 5409 5409 5408 5408 5408 5408 5408 5409 5409 5410 5411 5411 5412 5413 5413 5414 5415 5416 5417 5418 5418 5419 5420 5421 5421
5449 5446 5443 5440 5437 5433 5430 5427 5424 5421 5418 5415 5413 5410 5408 5406 5405 5404 5403 5401 5401 5400 5400 5399 5399 5399 5399 5400 5400 5401 5401 5402 5403 5404 5404 5405 5406 5407 5407 5408 5409 5410 5410 5411
5443 5440 5437 5434 5430 5427 5424 5421 5417 5414 5411 5408 5406 5403 5401 5399 5397 5396 5395 5394 5393 5392 5392 5391 5391 5391 5391 5391 5391 5391 5392 5392 5393 5394 5394 5395 5396 5397 5397 5398 5399 5399 5400 5400
5437 5434 5431 5427 5424 5420 5417 5414 5410 5407 5404 5401 5398 5396 5394 5392 5390 5389 5387 5387 5386 5385 5384 5383 5383 5382 5382 5382 5382 5382 5382 5383 5383 5384 5384 5385 5386 5387 5387 5388 5389 5389 5390 5390
5430 5427 5424 5421 5417 5414 5410 5407 5404 5400 5397 5394 5392 5389 5387 5385 5383 5382 5381 5379 5378 5377 5376 5375 5375 5374 5374 5373 5373 5373 5374 5374 5374 5375 5375 5376 5377 5377 5378 5379 5379 5380 5380 5380
5424 5421 5418 5414 5411 5407 5404 5400 5397 5394 5391 5388 5385 5383 5380 5378 5376 5374 5373 5372 5370 5369 5368 5367 5366 5366 5365 5365 5365 5365 5365 5365 5366 5366 5367 5367 5368 5368 5369 5369 5370 5370 5371 5371
5417 5414 5411 5408 5405 5401 5398 5394 5391 5388 5385 5382 5379 5376 5374 5372 5370 5368 5366 5364 5363 5361 5360 5359 5358 5357 5357 5357 5356 5356 5356 5357 5357 5358 5358 5359 5359 5359 5360 5360 5361 5361 5362 5362
5411 5408 5405 5401 5398 5395 5392 5388 5385 5382 5379 5376 5373 5370 5367 5365 5363 5361 5359 5357 5355 5354 5353 5351 5350 5349 5349 5348 5348 5348 5348 5348 5348 5349 5349 5349 5350 5350 5351 5351 5352 5353 5353 5353
5404 5401 5398 5395 5391 5388 5385 5382 5379 5376 5372 5370 5367 5364 5361 5359 5356 5354 5352 5350 5349 5347 5346 5344 5343 5342 5341 5341 5340 5340 5340 5340 5340 5340 5340 5340 5341 5341 5342 5343 5344 5344 5345 5345
Wind_Speed
34 34 34 35 33 32 33 33 34 33 34 34 35 34 33 34 35 35 35 35 35 35 36 36 35 36 37 38 38 39 38 39 39 40 41 41 41 42 42 42 42 42 42 42
33 33 34 34 32 31 31 32 33 33 33 33 33 33 33 32 32 33 32 32 32 32 33 34 34 33 34 36 37 38 37 38 39 39 39 40 39 40 41 42 42 41 41 42
33 33 34 33 31 30 30 31 31 31 30 30 30 31 30 31 30 30 29 29 29 30 30 30 31 31 31 32 34 35 36 37 38 38 39 39 38 38 39 40 40 41 41 41
34 33 33 32 30 29 28 28 28 28 28 28 27 27 28 29 29 29 28 28 27 28 29 28 29 30 30 30 31 32 33 34 36 37 38 38 38 38 38 38 39 40 40 40
34 33 32 30 29 28 28 27 27 27 27 27 27 27 27 27 28 28 28 28 28 28 28 28 28 28 29 29 30 31 31 32 34 34 35 36 37 37 37 37 37 38 38 38
33 33 31 29 28 27 28 27 26 26 26 26 26 26 27 27 27 28 28 28 28 28 28 28 28 28 29 30 30 30 31 31 32 33 33 35 36 36 36 37 37 37 38 37
31 31 30 29 28 27 27 27 26 25 25 25 26 26 26 27 28 28 28 29 29 28 28 29 29 28 29 29 30 30 30 30 31 31 32 32 33 34 35 36 36 36 36 37
30 29 29 28 28 27 27 27 26 25 25 26 26 26 26 27 27 28 29 29 29 28 28 28 28 28 28 28 28 29 29 29 30 30 30 31 32 33 34 35 35 34 34 35
30 29 28 28 28 28 28 28 27 27 26 26 26 27 26 26 27 27 27 28 28 28 27 27 27 27 27 27 27 28 28 28 28 29 29 30 30 31 31 32 33 33 33 33
29 29 29 29 28 28 27 27 27 27 27 26 26 26 26 26 26 26 26 26 26 26 26 27 27 27 26 26 27 28 28 28 28 28 29 29 30 30 30 31 32 32 32 32
29 29 29 29 28 27 26 26 27 27 26 26 26 26 26 27 27 26 26 25 25 25 25 25 26 27 27 26 27 27 28 28 28 28 28 29 29 29 29 29 30 31 32 32
29 29 29 28 27 26 26 26 26 25 25 26 26 26 26 26 26 25 24 24 24 24 24 24 24 25 25 26 26 27 27 27 27 27 27 28 29 29 29 29 29 30 31 32
27 27 27 26 26 26 26 26 26 26 25 26 26 26 26 25 25 24 23 23 23 23 23 23 23 23 24 25 26 26 27 27 27 27 27 27 28 28 29 30 30 31 31 31
27 26 25 25 25 25 26 26 26 26 26 26 26 26 26 25 24 24 23 23 23 23 23 23 23 23 24 25 25 26 27 27 28 28 28 28 28 29 29 30 30 31 31 32
26 26 25 25 25 26 27 27 27 26 26 27 27 27 26 26 24 24 23 22 23 23 23 23 23 24 24 25 25 26 27 28 29 29 29 29 30 30 30 30 31 31 32 32
26 26 26 26 26 27 27 26 27 27 27 27 27 27 27 26 24 24 23 23 23 23 24 24 24 25 25 25 25 26 27 28 29 30 31 31 31 31 31 31 31 31 32 32
26 26 27 27 27 27 26 27 27 27 27 26 26 26 26 25 25 25 25 25 25 25 25 25 26 26 27 27 27 27 28 29 29 30 31 31 31 31 31 31 31 31 32 32
26 26 27 27 27 26 26 26 26 26 26 25 25 25 25 25 25 25 25 26 26 26 27 27 27 27 28 28 28 28 29 28 29 29 30 30 31 31 31 31 31 31 32 32
26 26 27 26 27 27 26 26 26 25 25 24 24 25 25 25 24 24 25 25 25 25 26 26 27 28 28 28 28 29 29 29 29 29 29 30 30 31 31 31 31 31 31 32
26 26 26 26 26 26 26 25 25 25 25 25 25 24 24 24 24 24 24 24 24 24 25 25 26 26 27 27 27 28 28 29 29 29 29 30 30 30 30 31 31 31 31 31
25 25 25 26 26 26 26 26 26 26 26 26 25 24 24 24 24 24 23 23 24 23 23 24 24 25 25 26 26 27 27 28 29 29 29 29 29 29 29 29 30 30 31 31
25 25 26 26 26 26 26 26 26 26 25 25 24 24 24 24 24 23 23 23 23 23 23 23 23 24 24 25 25 26 26 26 27 27 27 27 28 28 28 29 29 29 30 30
25 26 26 26 26 27 27 27 26 26 25 25 24 24 23 23 23 23 23 23 23 23 23 23 23 23 24 24 25 25 25 25 25 25 26 26 26 26 27 27 28 28 28 29
26 26 26 26 26 26 26 26 25 25 25 24 23 23 22 22 22 23 23 23 23 23 23 23 24 24 24 24 24 24 25 25 25 25 25 25 25 26 26 26 26 26 27 27
25 25 25 26 26 26 26 25 25 25 24 23 23 23 23 22 22 22 22 23 23 23 23 23 23 23 23 23 23 24 24 25 25 25 25 26 26 26 26 26 26 26 26 26
25 25 26 26 26 26 26 25 25 25 24 24 23 23 23 22 22 22 22 22 22 22 22 22 22 22 22 23 23 23 23 24 24 25 25 25 25 25 25 25 25 25 24 24
26 26 26 27 27 27 27 26 25 25 24 24 23 23 22 22 22 21 20 20 20 20 20 20 20 21 21 21 22 22 22 23 23 23 24 24 24 24 24 24 23 23 23 23
Wind_Direction
302 299 296 295 293 290 286 283 283 282 279 276 274 273 272 272 270 270 270 270 268 265 261 260 259 258 255 253 251 250 249 249 250 250 250 250 251 251 252 252 252 252 252 253
301 300 298 295 294 292 289 285 283 283 281 279 276 275 272 271 271 270 270 270 268 267 264 260 259 258 256 254 252 250 249 249 249 250 251 251 251 251 251 251 251 252 253 254
302 300 298 296 296 294 291 288 287 285 283 281 278 275 272 271 271 270 269 268 269 267 264 261 259 258 257 255 252 250 248 248 248 249 250 251 252 252 252 251 251 252 254 255
302 301 299 300 297 294 293 292 290 288 284 283 281 278 275 273 271 270 269 268 267 266 265 263 259 256 255 254 252 250 248 248 248 247 248 249 251 251 251 252 251 252 254 255
303 302 301 300 298 295 293 292 291 288 285 282 280 279 278 276 273 271 269 267 266 266 264 262 259 257 254 254 251 249 248 248 247 246 247 249 250 250 250 251 252 253 254 255
302 300 299 300 301 297 295 293 292 289 286 283 283 280 278 276 276 273 271 268 266 266 263 261 259 257 255 255 253 249 248 248 247 246 247 248 249 249 250 252 254 254 254 255
301 300 299 300 300 298 295 295 293 289 287 285 284 283 280 277 277 277 273 271 268 266 264 261 260 259 257 255 253 249 249 249 248 247 246 247 248 250 251 252 253 254 254 254
302 302 302 301 299 296 294 293 292 290 288 287 286 285 283 280 279 278 276 273 270 267 264 261 260 258 257 255 252 251 250 250 249 248 247 248 249 250 251 252 252 253 253 255
301 301 301 301 299 296 293 290 289 289 289 289 287 286 285 282 280 279 278 275 271 267 262 260 259 258 257 254 252 251 251 251 250 249 249 250 251 251 251 251 252 253 253 255
300 300 300 299 298 297 295 292 290 289 290 289 288 285 285 286 284 281 279 276 272 267 263 260 258 258 256 254 253 253 252 251 251 250 250 251 252 252 252 252 252 253 255 257
299 300 298 298 297 297 297 296 294 293 290 290 289 287 286 287 285 282 278 275 272 269 264 261 259 258 257 255 254 253 252 252 251 252 252 252 252 252 253 253 253 254 256 258
300 300 300 299 298 297 299 299 297 294 292 290 290 289 288 287 285 282 279 274 271 268 266 263 261 258 258 257 255 253 253 252 252 253 253 253 253 253 253 254 255 256 258 260
300 301 301 300 299 298 299 299 298 296 293 292 289 288 289 288 284 282 279 275 271 267 265 263 261 258 257 257 256 255 254 253 254 254 254 254 253 253 253 254 256 258 259 261
299 300 300 300 299 298 297 297 297 296 294 293 292 290 290 287 284 282 279 275 271 267 265 264 263 260 258 258 257 257 255 255 254 255 256 256 255 255 256 256 258 260 261 262
298 298 299 299 299 298 297 296 296 296 294 292 291 290 289 288 285 281 278 276 273 269 266 265 264 263 260 259 259 258 257 256 256 256 257 258 258 258 259 259 260 261 261 262
298 298 300 300 300 300 299 297 296 295 294 292 291 290 288 286 284 281 277 277 275 271 268 266 265 264 261 261 261 260 259 259 259 258 258 259 259 259 260 260 261 261 262 263
300 300 301 301 301 301 301 300 298 296 295 294 292 290 288 285 282 279 277 277 275 273 269 267 266 265 265 264 264 263 261 261 260 259 259 259 259 260 261 261 261 262 263 264
302 303 303 303 303 302 301 301 300 299 298 296 293 291 289 286 284 281 279 277 275 274 271 269 267 267 267 267 266 265 264 262 261 260 260 260 260 261 261 261 262 262 263 264
302 303 304 305 306 306 304 302 302 300 299 297 296 294 291 288 285 283 281 278 276 274 272 270 268 267 267 266 265 265 264 263 262 262 261 261 261 261 262 262 262 262 263 265
303 304 305 306 307 307 306 305 304 302 300 298 297 295 292 289 286 284 282 280 278 276 274 271 270 268 267 266 266 266 265 264 263 263 263 262 262 262 262 263 262 262 264 265
303 304 305 307 308 308 307 306 305 303 302 300 297 295 292 290 288 285 283 281 279 278 276 274 272 271 269 269 267 266 265 265 264 263 263 263 263 263 263 264 264 264 265 266
304 306 307 308 308 308 308 307 307 305 303 301 299 297 293 290 287 285 284 283 280 279 277 275 273 272 271 270 269 268 266 265 264 263 262 262 263 263 264 265 264 265 267 267
305 306 308 309 310 310 309 309 308 306 304 302 300 298 295 291 288 286 284 283 281 280 278 276 274 274 273 271 269 268 266 265 265 264 263 263 263 264 264 264 265 266 267 269
304 306 308 310 311 311 311 310 309 308 306 304 302 300 297 294 291 289 287 285 283 281 279 277 276 275 275 273 271 268 266 266 265 265 264 265 265 265 265 265 266 266 268 270
304 305 307 310 311 311 311 310 309 309 308 306 304 303 300 297 294 292 290 288 285 283 281 280 278 277 276 275 272 269 267 266 265 265 265 266 267 266 266 266 266 267 269 270
303 305 306 308 310 311 311 310 309 308 308 306 305 304 302 300 298 296 294 291 289 286 284 283 281 279 277 275 273 271 269 268 267 267 266 267 267 266 265 264 265 267 268 269
302 304 305 306 308 309 309 310 309 309 308 307 305 304 302 300 298 297 296 293 291 289 287 285 283 281 279 276 274 273 271 269 269 268 268 268 266 264 263 263 264 265 267 268